ASTRA 1L

Last updated on Sept. 20, 2020, 5:45 a.m. UTC

1 31306U 07016A   20263.73803480  .00000105  00000-0  00000+0 0  9998
2 31306   0.0670 304.3653 0002580 283.9127  55.7016  1.00274517 49014
UTC
Height (km)
Latitude
Longitude
Inclination
Orbital Period
UTC large
Height (km)
Speed (km/s)
/
Latitude / Longitude
Inclination (degrees)
Orbital Period (minutes)
Azimuth
Elevation
Range (km)
Doppler Factor
iOS Compass Heading
iOS Angle

Next 30 passes for location: Hong Kong

Rise time Rise Azimuth (degrees) Set time Set Azimuth (degrees) Duration Max altitude (degrees)

No matching passes for this satellites